Regional Weather Roundup
Issued by NWS

Home | Current Version | Previous Version | Text Only | Print | Product List | Glossary On
Versions: 1 2 3 4 5 6 7 8 9 10 11 12 13 14 15 16 17 18 19 20 21 22 23 24 25 26 27 28 29 30 31 32 33 34 35 36 37 38 39 40 41 42 43 44 45 46 47 48 49 50
769
ASUS43 KDMX 291308
RWRIA

WEATHER ROUNDUP FOR IOWA
NATIONAL WEATHER SERVICE DES MOINES IA
800 AM CDT FRI APR 29 2016

NOTE: "FAIR" INDICATES FEW OR NO CLOUDS BELOW 12,000 FEET WITH NO
SIGNIFICANT WEATHER AND/OR OBSTRUCTIONS TO VISIBILITY.

* - THESE STATIONS ARE NOT NWS STATIONS...THUS NOT UNDER NWS
QUALITY CONTROL.  THEY ALSO DO NOT REPORT WEATHER SUCH
AS PRECIPITATION OR FOG.

IAZ001>003-012>014-020>022-031>034-043>046-291400-
   NORTHWEST IOWA

CITY           SKY/WX    TMP DP  RH WIND       PRES   REMARKS
CARROLL *      CLOUDY    43  41  93 N16       30.09F
CHEROKEE *     CLOUDY    41  41 100 N7        30.13F
DENISON *      CLOUDY    43  41  93 N14       30.07F
LE MARS *      CLOUDY    41  39  93 N6        30.14F
ORANGE CITY *  CLOUDY    39  37  93 NE5       30.12F
SHELDON *      CLOUDY    39  39 100 NE10      30.13S WCI  32
SIOUX CITY     CLOUDY    44  38  79 N12       30.11F
SPENCER        CLOUDY    40  37  89 NE9       30.14S WCI  34
STORM LAKE *   PTSUNNY   41  37  87 NE10      30.12F
$$

IAZ055>058-069>071-079>083-090>094-291400-
   SOUTHWEST IOWA

CITY           SKY/WX    TMP DP  RH WIND       PRES   REMARKS
ATLANTIC *     CLOUDY    45  41  87 NE12      30.07F
AUDUBON *      MOSUNNY   43  39  87 N10       30.09S
CLARINDA *       N/A    N/A N/A N/A MISG        N/A
COUNCIL BLFS * CLOUDY    45  43  93 N7G15     30.07F
CRESTON *      CLOUDY    45  41  87 N12       30.07F
HARLAN  *      CLOUDY    43  41  93 NE10      30.11F
LAMONI         CLOUDY    46  43  89 NE6       30.05S
RED OAK *      CLOUDY    46  41  81 N12       30.07F
SHENANDOAH *   CLOUDY    46  43  87 N14       30.06F
$$

IAZ047>049-059>061-072>074-084-291400-
   CENTRAL IOWA

CITY           SKY/WX    TMP DP  RH WIND       PRES   REMARKS
AMES           CLOUDY    44  41  89 N13       30.09S
ANKENY *       CLOUDY    46  45  93 N8        30.07F
BOONE *        CLOUDY    43  43 100 N13       30.08S
CHARITON *     CLOUDY    46  45  93 N9G16     30.04S
DES MOINES     CLOUDY    47  42  83 N14       30.06F
GRINNELL*      CLOUDY    45  43  93 N13       30.08S
KNOXVILLE *    CLOUDY    46  45  93 N16G23    30.02F
MARSHALLTOWN   CLOUDY    44  41  89 N12       30.09R
NEWTON *       CLOUDY    45  45 100 N10       30.07S
PELLA *        CLOUDY    46  45  93 NE8       30.06F FOG
$$

IAZ004>006-015-016-023>025-035-036-291400-
   NORTH CENTRAL IOWA

CITY           SKY/WX    TMP DP  RH WIND       PRES   REMARKS
ALGONA *       CLOUDY    41  39  93 N8        30.14R
CLARION *      MIX PCPN  41  41 100 NE12      30.12S
ESTHERVILLE    CLOUDY    39  37  92 N8        30.15R WCI  33
FORT DODGE *   CLOUDY    41  36  81 N9        30.12F
MASON CITY     CLOUDY    40  38  93 N10       30.15R WCI  33
FOREST CITY *  CLOUDY    39  37  93 NE6       30.14R WCI  35
WEBSTER CITY * CLOUDY    43  43 100 N13       30.09F
IOWA FALLS *   CLOUDY    43  41  93 N13       30.11F
$$

IAZ007>011-017>019-026>030-037>042-050>054-066-291400-
   NORTHEAST IOWA

CITY           SKY/WX    TMP DP  RH WIND       PRES   REMARKS
CEDAR RAPIDS   PTSUNNY   44  41  89 N14       30.07F
CHARLES CITY * MOSUNNY   41  41 100 NE10      30.14R
CLINTON *      CLOUDY    43  41  93 NE15      30.07F
DECORAH *      CLOUDY    39  37  93 NE9       30.12S WCI  33
DUBUQUE        CLOUDY    41  39  93 N12       30.09F
MONTICELLO *   CLOUDY    43  39  87 N10       30.08F
OELWEIN *      CLOUDY    41  39  93 NE9       30.12F
WATERLOO       CLOUDY    42  38  85 N10       30.11F
$$

IAZ064-065-067-068-078-291400-
   EAST CENTRAL IOWA

CITY           SKY/WX    TMP DP  RH WIND       PRES   REMARKS
DAVENPORT      CLOUDY    44  40  85 N10       30.09S
IOWA CITY      CLOUDY    45  41  86 N8        30.10R
MT. PLEASANT * CLOUDY    48  48 100 N17       30.04F FOG
MUSCATINE *    CLOUDY    46  43  87 NE9       30.07F
QUAD CITIES    CLOUDY    46  40  79 N5        30.07S
$$

IAZ062-063-075>077-085>089-095>099-291400-
   SOUTHEAST IOWA

CITY           SKY/WX    TMP DP  RH WIND       PRES   REMARKS
BURLINGTON     CLOUDY    47  46  97 NE10      30.05F FOG
FAIRFIELD *    CLOUDY    46  43  87 NE16      30.02F
FORT MADISON * CLOUDY    46  45  93 N9        30.05S
KEOKUK *       CLOUDY    50  45  81 NE13G20   30.03R
OSKALOOSA *    CLOUDY    46  45  93 N15       30.03F FOG
OTTUMWA        CLOUDY    46  44  93 NE16      30.02F FOG
WASHINGTON *   CLOUDY    46  46 100 N15       30.07F FOG
$$

ABBREVIATIONS USED IN REMARKS
   TC - TEMPERATURES IN CELSIUS
  WCI - WIND CHILL INDEX
   HX - HEAT INDEX
  VSB - VISIBILITY
$$





USA.gov is the U.S. government's official web portal to all federal, state and local government web resources and services.